Time,TemperatureF,DewpointF,PressureIn,WindDirection,WindDirectionDegrees,WindSpeedMPH,WindSpeedGustMPH,Humidity,HourlyPrecipIn,Conditions,Clouds,dailyrainin,SoftwareType,DateUTC
2013-07-22 00:14:00,66.3,63.0,30.07,SSE,158,0.0,7.0,89,0.00,,,0.00,weatherlink.com 1.10,2013-07-22 04:14:00,
2013-07-22 00:29:00,66.3,63.0,30.07,SSE,159,1.0,5.0,90,0.00,,,0.00,weatherlink.com 1.10,2013-07-22 04:29:00,
2013-07-22 00:44:00,66.8,64.0,30.06,SSE,159,1.0,4.0,89,0.00,,,0.00,weatherlink.com 1.10,2013-07-22 04:44:00,
2013-07-22 00:59:00,66.8,64.0,30.05,SSE,159,2.0,4.0,89,0.00,,,0.00,weatherlink.com 1.10,2013-07-22 04:59:00,
2013-07-22 01:14:00,67.0,64.0,30.05,SSE,153,1.0,9.0,89,0.00,,,0.00,weatherlink.com 1.10,2013-07-22 05:14:00,
2013-07-22 01:29:00,66.2,63.0,30.04,SSE,159,5.0,8.0,90,0.00,,,0.00,weatherlink.com 1.10,2013-07-22 05:29:00,
2013-07-22 01:44:00,66.1,63.0,30.03,South,174,4.0,6.0,89,0.00,,,0.00,weatherlink.com 1.10,2013-07-22 05:44:00,
2013-07-22 01:59:00,66.3,63.0,30.02,South,169,3.0,8.0,89,0.00,,,0.00,weatherlink.com 1.10,2013-07-22 05:59:00,
2013-07-22 02:14:00,66.0,63.0,30.02,SSE,166,3.0,5.0,90,0.00,,,0.00,weatherlink.com 1.10,2013-07-22 06:14:00,
2013-07-22 02:29:00,66.0,63.0,30.01,SSE,165,3.0,9.0,90,0.00,,,0.00,weatherlink.com 1.10,2013-07-22 06:29:00,
2013-07-22 02:44:00,66.2,63.0,30.00,SSE,162,1.0,7.0,90,0.00,,,0.00,weatherlink.com 1.10,2013-07-22 06:44:00,
2013-07-22 02:59:00,66.4,64.0,30.00,South,172,4.0,9.0,90,0.00,,,0.00,weatherlink.com 1.10,2013-07-22 06:59:00,
2013-07-22 03:14:00,66.4,63.0,29.99,South,173,4.0,6.0,89,0.00,,,0.00,weatherlink.com 1.10,2013-07-22 07:14:00,
2013-07-22 03:29:00,66.4,63.0,29.98,SSE,167,3.0,11.0,89,0.00,,,0.00,weatherlink.com 1.10,2013-07-22 07:29:00,
2013-07-22 03:44:00,66.7,63.0,29.98,SSE,167,5.0,7.0,88,0.00,,,0.00,weatherlink.com 1.10,2013-07-22 07:44:00,
2013-07-22 03:59:00,66.9,63.0,29.98,SSE,155,3.0,12.0,87,0.00,,,0.00,weatherlink.com 1.10,2013-07-22 07:59:00,
2013-07-22 04:14:00,67.1,63.0,29.98,South,172,4.0,8.0,87,0.00,,,0.00,weatherlink.com 1.10,2013-07-22 08:14:00,
2013-07-22 04:29:00,67.1,63.0,29.98,SSE,167,4.0,10.0,86,0.00,,,0.00,weatherlink.com 1.10,2013-07-22 08:29:00,
2013-07-22 04:44:00,66.9,63.0,29.98,South,172,2.0,5.0,87,0.00,,,0.00,weatherlink.com 1.10,2013-07-22 08:44:00,
2013-07-22 04:59:00,66.7,62.0,29.98,South,177,1.0,7.0,86,0.00,,,0.00,weatherlink.com 1.10,2013-07-22 08:59:00,
2013-07-22 05:14:00,66.8,63.0,29.98,South,175,3.0,5.0,86,0.00,,,0.00,weatherlink.com 1.10,2013-07-22 09:14:00,
2013-07-22 05:29:00,66.6,62.0,29.99,South,178,2.0,4.0,85,0.00,,,0.00,weatherlink.com 1.10,2013-07-22 09:29:00,
2013-07-22 05:44:00,66.0,62.0,29.99,SSE,167,0.0,4.0,87,0.00,,,0.00,weatherlink.com 1.10,2013-07-22 09:44:00,
2013-07-22 05:59:00,65.8,62.0,30.00,South,173,2.0,7.0,88,0.00,,,0.00,weatherlink.com 1.10,2013-07-22 09:59:00,
2013-07-22 06:15:00,65.6,62.0,30.00,South,173,0.0,3.0,88,0.00,,,0.00,weatherlink.com 1.10,2013-07-22 10:15:00,
2013-07-22 06:30:00,65.1,62.0,30.00,South,173,2.0,3.0,89,0.00,,,0.00,weatherlink.com 1.10,2013-07-22 10:30:00,
2013-07-22 06:45:00,64.7,62.0,30.01,South,173,4.0,6.0,91,0.00,,,0.00,weatherlink.com 1.10,2013-07-22 10:45:00,
2013-07-22 07:00:00,66.2,63.0,30.01,South,173,0.0,3.0,88,0.00,,,0.00,weatherlink.com 1.10,2013-07-22 11:00:00,
2013-07-22 07:15:00,68.1,64.0,30.02,South,173,0.0,2.0,86,0.00,,,0.00,weatherlink.com 1.10,2013-07-22 11:15:00,
2013-07-22 07:30:00,68.9,64.0,30.02,South,173,0.0,2.0,84,0.00,,,0.00,weatherlink.com 1.10,2013-07-22 11:30:00,
2013-07-22 07:45:00,69.4,65.0,30.02,South,173,0.0,1.0,85,0.00,,,0.00,weatherlink.com 1.10,2013-07-22 11:45:00,
2013-07-22 08:00:00,72.2,66.0,30.03,South,173,0.0,2.0,80,0.00,,,0.00,weatherlink.com 1.10,2013-07-22 12:00:00,
2013-07-22 08:15:00,72.9,65.0,30.03,South,173,0.0,1.0,77,0.00,,,0.00,weatherlink.com 1.10,2013-07-22 12:15:00,
2013-07-22 08:30:00,72.7,66.0,30.04,South,173,0.0,2.0,78,0.00,,,0.00,weatherlink.com 1.10,2013-07-22 12:30:00,
2013-07-22 08:45:00,71.6,65.0,30.04,South,173,0.0,2.0,80,0.00,,,0.00,weatherlink.com 1.10,2013-07-22 12:45:00,
2013-07-22 09:00:00,73.5,66.0,30.04,South,173,0.0,3.0,78,0.00,,,0.00,weatherlink.com 1.10,2013-07-22 13:00:00,
2013-07-22 09:15:00,76.2,67.0,30.04,South,173,0.0,2.0,73,0.00,,,0.00,weatherlink.com 1.10,2013-07-22 13:15:00,
2013-07-22 09:30:00,76.8,67.0,30.05,South,173,0.0,1.0,72,0.00,,,0.00,weatherlink.com 1.10,2013-07-22 13:30:00,
2013-07-22 09:45:00,74.6,66.0,30.04,South,173,0.0,3.0,75,0.00,,,0.00,weatherlink.com 1.10,2013-07-22 13:45:00,
2013-07-22 10:00:00,74.2,66.0,30.04,South,173,0.0,3.0,75,0.00,,,0.00,weatherlink.com 1.10,2013-07-22 14:00:00,
2013-07-22 10:15:00,73.6,66.0,30.04,South,173,0.0,3.0,78,0.00,,,0.00,weatherlink.com 1.10,2013-07-22 14:15:00,
2013-07-22 10:30:00,73.8,66.0,30.05,South,173,3.0,5.0,77,0.00,,,0.00,weatherlink.com 1.10,2013-07-22 14:30:00,
2013-07-22 10:45:00,75.0,67.0,30.04,South,173,2.0,4.0,77,0.00,,,0.00,weatherlink.com 1.10,2013-07-22 14:45:00,
2013-07-22 11:00:00,75.3,66.0,30.05,South,173,2.0,3.0,73,0.00,,,0.00,weatherlink.com 1.10,2013-07-22 15:00:00,
2013-07-22 11:15:00,76.6,67.0,30.05,South,173,1.0,6.0,71,0.00,,,0.00,weatherlink.com 1.10,2013-07-22 15:15:00,
2013-07-22 11:30:00,77.0,66.0,30.04,South,173,4.0,4.0,68,0.00,,,0.00,weatherlink.com 1.10,2013-07-22 15:30:00,
2013-07-22 11:45:00,78.0,66.0,30.04,South,173,0.0,5.0,66,0.00,,,0.00,weatherlink.com 1.10,2013-07-22 15:45:00,
2013-07-22 12:00:00,78.9,67.0,30.04,South,174,0.0,4.0,66,0.00,,,0.00,weatherlink.com 1.10,2013-07-22 16:00:00,
2013-07-22 12:15:00,79.1,68.0,30.04,South,173,0.0,4.0,69,0.00,,,0.00,weatherlink.com 1.10,2013-07-22 16:15:00,
2013-07-22 12:30:00,79.4,67.0,30.04,South,173,1.0,3.0,66,0.00,,,0.00,weatherlink.com 1.10,2013-07-22 16:30:00,
2013-07-22 12:45:00,77.5,67.0,30.03,South,173,2.0,3.0,69,0.00,,,0.00,weatherlink.com 1.10,2013-07-22 16:45:00,
2013-07-22 13:00:00,76.2,67.0,30.03,South,173,1.0,3.0,74,0.00,,,0.00,weatherlink.com 1.10,2013-07-22 17:00:00,
2013-07-22 13:15:00,78.7,66.0,30.02,South,173,1.0,4.0,65,0.00,,,0.00,weatherlink.com 1.10,2013-07-22 17:15:00,
2013-07-22 13:30:00,77.3,66.0,30.02,South,175,1.0,2.0,69,0.00,,,0.00,weatherlink.com 1.10,2013-07-22 17:30:00,
2013-07-22 13:45:00,79.1,69.0,30.01,South,178,0.0,4.0,70,0.00,,,0.00,weatherlink.com 1.10,2013-07-22 17:45:00,
2013-07-22 14:00:00,78.0,69.0,30.00,South,177,0.0,5.0,73,0.00,,,0.00,weatherlink.com 1.10,2013-07-22 18:00:00,
2013-07-22 14:15:00,80.7,70.0,30.00,South,177,0.0,4.0,69,0.00,,,0.00,weatherlink.com 1.10,2013-07-22 18:15:00,
2013-07-22 14:30:00,81.1,73.0,29.99,South,177,0.0,2.0,75,0.00,,,0.00,weatherlink.com 1.10,2013-07-22 18:30:00,
2013-07-22 14:45:00,77.8,69.0,29.99,South,177,2.0,4.0,75,0.00,,,0.00,weatherlink.com 1.10,2013-07-22 18:45:00,
2013-07-22 15:00:00,76.6,71.0,29.98,South,177,1.0,4.0,82,0.00,,,0.00,weatherlink.com 1.10,2013-07-22 19:00:00,
2013-07-22 15:30:00,79.0,72.0,29.97,South,177,0.0,3.0,79,0.00,,,0.00,weatherlink.com 1.10,2013-07-22 19:30:00,
2013-07-22 15:46:00,79.7,71.0,29.97,South,177,0.0,5.0,74,0.00,,,0.00,weatherlink.com 1.10,2013-07-22 19:46:00,
2013-07-22 16:01:00,79.7,70.0,29.96,South,177,1.0,2.0,73,0.00,,,0.00,weatherlink.com 1.10,2013-07-22 20:01:00,
2013-07-22 16:16:00,78.5,70.0,29.96,South,177,0.0,3.0,76,0.00,,,0.00,weatherlink.com 1.10,2013-07-22 20:16:00,
2013-07-22 16:31:00,77.1,70.0,29.96,South,177,2.0,3.0,79,0.00,,,0.00,weatherlink.com 1.10,2013-07-22 20:31:00,
2013-07-22 16:46:00,77.6,71.0,29.96,South,178,1.0,2.0,80,0.00,,,0.00,weatherlink.com 1.10,2013-07-22 20:46:00,
2013-07-22 17:01:00,76.8,70.0,29.95,South,178,1.0,3.0,79,0.00,,,0.00,weatherlink.com 1.10,2013-07-22 21:01:00,
2013-07-22 17:16:00,76.5,70.0,29.95,South,177,1.0,4.0,81,0.00,,,0.00,weatherlink.com 1.10,2013-07-22 21:16:00,
2013-07-22 17:31:00,74.7,70.0,29.95,South,177,2.0,8.0,84,0.00,,,0.00,weatherlink.com 1.10,2013-07-22 21:31:00,
2013-07-22 17:46:00,73.7,69.0,29.95,South,173,3.0,5.0,85,0.00,,,0.00,weatherlink.com 1.10,2013-07-22 21:46:00,
2013-07-22 18:01:00,74.9,68.0,29.94,South,173,1.0,4.0,80,0.00,,,0.00,weatherlink.com 1.10,2013-07-22 22:01:00,
2013-07-22 18:16:00,75.6,68.0,29.94,South,173,0.0,5.0,78,0.00,,,0.00,weatherlink.com 1.10,2013-07-22 22:16:00,
2013-07-22 18:31:00,75.8,68.0,29.94,South,173,2.0,2.0,77,0.00,,,0.00,weatherlink.com 1.10,2013-07-22 22:31:00,
2013-07-22 18:46:00,73.4,68.0,29.94,South,173,1.0,4.0,83,0.00,,,0.00,weatherlink.com 1.10,2013-07-22 22:46:00,
2013-07-22 19:01:00,72.1,68.0,29.93,South,173,3.0,4.0,86,0.00,,,0.00,weatherlink.com 1.10,2013-07-22 23:01:00,
2013-07-22 19:16:00,71.2,68.0,29.94,South,181,1.0,4.0,89,0.00,,,0.00,weatherlink.com 1.10,2013-07-22 23:16:00,
2013-07-22 19:31:00,70.8,68.0,29.93,South,181,2.0,3.0,89,0.00,,,0.00,weatherlink.com 1.10,2013-07-22 23:31:00,
2013-07-22 19:46:00,70.3,68.0,29.93,SSE,162,0.0,9.0,91,0.04,,,0.04,weatherlink.com 1.10,2013-07-22 23:46:00,
2013-07-22 20:01:00,69.7,68.0,29.93,SSE,162,1.0,3.0,93,0.04,,,0.04,weatherlink.com 1.10,2013-07-23 00:01:00,
2013-07-22 20:16:00,69.3,67.0,29.94,SSE,162,2.0,6.0,93,0.04,,,0.04,weatherlink.com 1.10,2013-07-23 00:16:00,
2013-07-22 20:31:00,69.4,67.0,29.93,SSE,165,2.0,4.0,92,0.04,,,0.04,weatherlink.com 1.10,2013-07-23 00:31:00,
2013-07-22 20:46:00,69.2,67.0,29.93,SSE,165,3.0,6.0,93,0.00,,,0.04,weatherlink.com 1.10,2013-07-23 00:46:00,
2013-07-22 21:01:00,69.3,67.0,29.93,SSE,165,4.0,7.0,92,0.01,,,0.05,weatherlink.com 1.10,2013-07-23 01:01:00,
2013-07-22 21:16:00,68.8,67.0,29.93,South,169,4.0,11.0,93,0.01,,,0.05,weatherlink.com 1.10,2013-07-23 01:16:00,
2013-07-22 21:31:00,68.8,67.0,29.93,SSE,158,4.0,8.0,94,0.01,,,0.05,weatherlink.com 1.10,2013-07-23 01:31:00,
2013-07-22 21:46:00,68.6,67.0,29.94,SSE,162,3.0,7.0,94,0.02,,,0.06,weatherlink.com 1.10,2013-07-23 01:46:00,
2013-07-22 22:01:00,68.3,67.0,29.95,South,174,3.0,7.0,94,0.16,,,0.21,weatherlink.com 1.10,2013-07-23 02:01:00,
2013-07-22 22:16:00,66.0,63.0,29.95,South,169,6.0,9.0,91,0.19,,,0.24,weatherlink.com 1.10,2013-07-23 02:16:00,
2013-07-22 22:31:00,65.5,63.0,29.96,SSE,150,6.0,8.0,92,0.19,,,0.24,weatherlink.com 1.10,2013-07-23 02:31:00,
2013-07-22 22:46:00,65.7,63.0,29.95,South,170,3.0,12.0,90,0.18,,,0.24,weatherlink.com 1.10,2013-07-23 02:46:00,
2013-07-22 23:01:00,65.6,63.0,29.95,South,173,3.0,12.0,91,0.02,,,0.24,weatherlink.com 1.10,2013-07-23 03:01:00,
2013-07-22 23:16:00,65.6,63.0,29.95,South,181,1.0,10.0,91,0.00,,,0.24,weatherlink.com 1.10,2013-07-23 03:16:00,
2013-07-22 23:31:00,65.6,63.0,29.95,SSE,167,4.0,12.0,90,0.00,,,0.24,weatherlink.com 1.10,2013-07-23 03:31:00,
2013-07-22 23:46:00,65.8,63.0,29.95,SSE,162,0.0,12.0,90,0.00,,,0.24,weatherlink.com 1.10,2013-07-23 03:46:00,